Regional Weather Roundup
Issued by NWS

Home | Current Version | Previous Version | Text Only | Print | Product List | Glossary Off
Versions: 1 2 3 4 5 6 7 8 9 10 11 12 13 14 15 16 17 18 19 20 21 22 23 24 25 26 27 28 29 30 31 32 33 34 35 36 37 38 39 40 41 42 43 44 45 46 47 48 49 50

000
ASUS43 KLOT 191312
RWRIL

ILLINOIS REGIONAL WEATHER ROUNDUP
NATIONAL WEATHER SERVICE CHICAGO/ROMEOVILLE IL
700 AM CST SUN FEB 19 2017

NOTE: "FAIR" INDICATES FEW OR NO CLOUDS BELOW 12,000 FEET WITH NO
SIGNIFICANT WEATHER AND/OR OBSTRUCTIONS TO VISIBILITY.

* THESE STATIONS ARE NOT UNDER NWS QUALITY CONTROL. THEY ALSO MAY NOT
  REPORT WEATHER SUCH AS PRECIPITATION OR FOG.

ILZ001-002-007-009-015-016-024-191400-
NORTHWEST ILLINOIS

CITY           SKY/WX    TMP DP  RH WIND       PRES   REMARKS
MOLINE         CLOUDY    28  25  88 CALM      29.99R
STERLING*      CLEAR     29  28  96 CALM      30.01R
SAVANNA*       CLEAR     29  28  95 CALM      30.00R
$$

ILZ003-004-008-010-011-017-018-191400-
NORTH CENTRAL ILLINOIS

CITY           SKY/WX    TMP DP  RH WIND       PRES   REMARKS
ROCKFORD       CLEAR     31  27  85 CALM      30.02R
FREEPORT*      FOG       28  28  98 CALM      30.01R VSB 1/2
ROCHELLE*      CLEAR     31  30  96 CALM      30.00S FOG
DE KALB*       CLEAR     38  36  92 CALM      30.01R
PERU*          CLEAR     32  30  90 CALM      30.01R
$$

ILZ005-006-012>014-019>023-191400-
NORTHEAST ILLINOIS

CITY           SKY/WX    TMP DP  RH WIND       PRES   REMARKS
CHICAGO-OHARE  PTCLDY    40  34  79 W3        30.00R
CHICAGO-MIDWAY PTCLDY    39  33  79 CALM      30.01R
AURORA         CLEAR     31  28  89 CALM      30.00R FOG
LANSING*       CLEAR     31  31 100 CALM      30.01R
JOLIET*        CLEAR     32  31  97 CALM      30.01R
WAUKEGAN       CLEAR     31  27  85 CALM      29.99R
DUPAGE AIRPORT CLEAR     30  26  85 NE3       29.99R
KANKAKEE*      CLEAR     31  31  97 CALM      30.02R FOG
WHEELING       CLEAR     31  29  92 CALM      30.02R
MORRIS*        CLEAR     34  32  92 CALM      30.00R
ROMEOVILLE*    CLEAR     36  36 100 CALM      30.01R
NORTHERLY ISL    N/A     46  37  71 SW7         N/A
$$

LMZ740>746-191400-
SOUTHERN LAKE MICHIGAN

STATION/POSITION SKY/WX   TEMP    WIND        PRES    VSBY  WAVE
                          AIR SEA DIR/SP/G                  HT/PER
                          (F)     (DEG/KT/KT) (MB)    (MI)  (FT/S)
HARRISON CRIB              51     280/  7/  7   N/A
BURNHAM HARBOR             47     260/  6/  6   N/A
CALUMET HARBOR             42     210/  4/  5 1015.3R
BURNS HARBOR               43     210/  3/  4 1016.3R
MICHIGAN CITY              42     190/  5/  6   N/A
$$

ILZ025>027-034>036-040-047-049-050-058-095>099-191400-
WEST-CENTRAL ILLINOIS

CITY           SKY/WX    TMP DP  RH WIND       PRES   REMARKS
QUINCY         CLEAR     41  40  96 S6        29.99R FOG
GALESBURG*     CLOUDY    31  29  95 CALM        N/A
MACOMB*        CLOUDY    32  28  88 CALM      30.01R
JACKSONVILLE*  FOG       34  34 100 S3        30.00R VSB<1/4
PITTSFIELD*    FOG       36  36  99 CALM      30.01R VSB<1/4
$$

ILZ028>032-037-038-041>044-048-051>054-059>061-191400-
CENTRAL ILLINOIS

CITY           SKY/WX    TMP DP  RH WIND       PRES   REMARKS
PONTIAC        FOG       31  31  99 CALM      30.02R VSB<1/4
BLOOMINGTON    FOG       36  36 100 SW5       30.01R VSB 1/4 WCI  32
DECATUR        FOG       46  45  96 SW5       30.02R VSB 1/4
PEORIA         FOG       35  35 100 CALM      30.00R VSB 1
LACON*         CLOUDY    31  30  99 CALM      30.00R
LINCOLN*       DRZL/FOG  42  42 100 SE3       30.01R VSB<1/4
SPRINGFIELD    FOG       41  40  96 CALM      30.02R VSB<1/4
TAYLORVILLE    FOG       46  46 100 CALM      30.02R VSB<1/4
$$

ILZ033-039-045-046-055>057-062-063-191400-
EAST-CENTRAL ILLINOIS

CITY           SKY/WX    TMP DP  RH WIND       PRES   REMARKS
CHAMPAIGN      FOG       47  46  97 SW5       30.02R VSB 1/4
RANTOUL*       FOG       47  47  99 W3        30.01R VSB<1/4
MATTOON        FOG       49  49 100 SW3       30.02R VSB 3/4
PARIS*         CLOUDY    49  48  97 CALM      30.04R FOG
$$

ILZ079-100>102-191400-
SOUTHWEST ILLINOIS

CITY           SKY/WX    TMP DP  RH WIND       PRES   REMARKS
ALTON          FOG       43  43 100 CALM      30.04R VSB 1/16
BELLEVILLE     FOG       43  43 100 CALM      30.03R VSB<1/4
CAHOKIA*       FOG       41  39  93 SE3       30.03R VSB 1/4
SPARTA*        FOG       50  49  99 W3        30.05R VSB 1/4
$$

ILZ064>066-069>071-074>076-080>082-084>086-088>090-092>094-191400-
SOUTH-CENTRAL ILLINOIS

CITY           SKY/WX    TMP DP  RH WIND       PRES   REMARKS
CARBONDALE     CLOUDY    52  52 100 W5        30.06R FOG
CAIRO*         FOG       46  46 100 CALM      30.07R VSB<1/4
EFFINGHAM*     CLOUDY    50  50 100 S3        30.05R FOG
MARION         FOG       52  52 100 CALM      30.05R VSB 3/4
MT. VERNON     CLOUDY    52  51  97 CALM      30.05R FOG
CENTRALIA*     FOG       52  52 100 SW3       30.03S VSB 1/2
SALEM*         CLOUDY    52  51  94 SW5       30.04R FOG
METROPOLIS*    FOG       46  46  99 CALM      30.07R VSB<1/4
$$

ILZ067-068-072-073-078-083-087-091-191400-
SOUTHEAST ILLINOIS

CITY           SKY/WX    TMP DP  RH WIND       PRES   REMARKS
LAWRENCEVILLE  CLOUDY    49  48  97 CALM      30.05R FOG
FLORA*         CLOUDY    52  50  94 CALM      30.05R FOG
FAIRFIELD*     CLOUDY    51  51 100 CALM      30.05R FOG
HARRISBURG*    CLOUDY    51  51 100 CALM      30.06R FOG
ROBINSON*      CLOUDY    49  48  95 CALM      30.06R FOG
CARMI*         CLOUDY    49  49 100 CALM      30.05R FOG
$$

ABBREVIATIONS USED IN REMARKS
   TC - TEMPERATURE IN CELSIUS
  WCI - WIND CHILL INDEX
   HX - HEAT INDEX
  VSB - VISIBILITY
$$





USA.gov is the U.S. government's official web portal to all federal, state and local government web resources and services.